Weather

Vsebine: Paragliding sitesCurrent conditionsCurrent conditions (amateur)Radar rainfal imageMeteo stationsPanoramic cameras


Current conditions (official report)

Show amateur stations

Click on a specific station to see its location

Location Weather conditions Temperature Wind Air pressure Last updated Geopedia
    °C direction speed (m/s) gusts (m/s) hPa    
Babno Polje 4   - - 2020-03-29 23:53:00
Babno Polje (756 m) 5   - - 2016-01-12 07:40:00
Bilje Nova Gorica 11   2 2 1013 2020-03-29 23:53:00
Bilje pri Novi Gorici 12   1 - 1013 2020-03-29 23:43:00
Blegoš 4   - - 2020-03-29 23:43:00
Bohinjska Češnjica 9   - - 2020-03-29 23:53:00
Boršt Gorenja vas 9   1 3 1014 2020-03-29 23:34:00
Bovec 9   1 3 1015 2020-03-29 23:35:00
Breginj 8   - - 2020-03-29 23:43:00
Bukovski vrh 9   - - 2020-03-29 23:43:00
Celje 11   1 - 1016 2020-03-29 23:43:00
Cerkniško jezero 8   - - 2020-03-29 23:53:00
Črnomelj 9   1 - 1015 2020-03-29 23:43:00
Davča 5   - - 2020-03-29 23:53:00
Dobliče Črnomelj 11   3 9 1016 2020-03-29 23:32:00
Dolenje Ajdovščina 14   1 5 2020-03-29 23:34:00
Gačnik 9   1 4 2020-03-29 23:53:00
Godnje 11   2 2 2020-03-29 23:43:00
Gornji Grad 7   - - 2020-03-29 23:43:00
Hočko Pohorje 7   - - 2020-03-29 23:53:00
Hrastnik 17   2 5 1009 2019-09-30 08:36:00
Idrija 9   - - 2020-03-29 23:53:00
Ilirska Bistrica 8   1 2 2020-03-29 23:34:00
Iskrba 6   1 3 2020-03-29 23:53:00
Jeronim 5   - - 2020-03-29 23:53:00
Jeruzalem 8   - - 2020-03-29 23:43:00
Jezersko 4   - - 2020-03-29 23:43:00
Juršče   - - 2016-09-13 14:33:00
Kamniška Bistrica 7   - - 2020-03-29 23:43:00
Kanin -3   - - 2020-03-29 23:43:00
Katarina nad Ljubljano 11   - - 2020-03-29 20:42:00
Kočevje 7   1 2 2020-03-29 23:43:00
Koper Kapitanija 12   2 3 1013 2020-03-29 23:35:00
Korensko sedlo 5   - - 2020-03-29 23:43:00
Kraj. park Goričko 7   5 10 2020-03-29 23:34:00
Kranj 9   - - 2020-03-29 23:53:00
Kredarica -5   6 - 2020-03-29 23:43:00
Krn 7   - - 2020-03-29 23:43:00
Krško 12   3 7 1016 2020-03-29 23:38:00
Krvavec -1   2 4 2020-03-29 23:53:00
Kubed 9   - - 2020-03-29 23:43:00
Kum 2   4 8 2020-03-29 23:43:00
Lendava 9   4 9 1016 2020-03-29 23:35:00
Let. E. Rusjana Maribor 10   3 7 1017 2020-03-29 23:34:00
Let. J. Pučnika Lj. 0   2 3 1011 2015-11-26 11:03:00
Let. J. Pučnika Ljubljana 10   4 6 1015 2020-03-29 23:53:00
Letališče Cerklje ob Krki 11   3 - 1015 2020-03-29 23:43:00
Letališče Edvarda Rusjana Maribor 10   2 - 1016 2020-03-29 23:43:00
Letališče Jožeta Pučnika Ljubljana 10   2 - 1014 2020-03-29 23:43:00
Letališče Lesce 8   2 - 1015 2020-03-29 23:43:00
Letališče Portorož 9   3 - 1012 2020-03-29 23:43:00
Lisca 4   6 10 2020-03-29 23:53:00
Lisca (943 m) 9   5 12 2016-03-29 14:02:00
Litija 10   - - 2020-03-29 23:53:00
Ljubljana 11   2 - 1015 2020-03-29 23:43:00
Logarska dolina 4   - - 2020-03-29 23:43:00
Logatec 8   - - 2020-03-29 23:53:00
Luka Koper 11   1 2 2020-03-29 23:34:00
Malkovec 10   2 4 1016 2020-03-29 23:35:00
Maribor 9   2 4 2020-03-29 23:53:00
Maribor - Tabor -3   1 2 2020-01-14 09:33:00
Marinča vas 9   - - 2020-03-29 23:43:00
Metlika 10   - - 2020-03-29 23:43:00
Mežica 7   - - 2020-03-29 23:43:00
Miklavž na Gorjancih 5   - - 2020-03-29 23:43:00
Murska Sobota 9   - - 2020-03-29 23:43:00
Nanos 4   5 10 2020-03-29 23:43:00
Nova Gorica 13   - - 2020-03-29 23:33:00
Nova vas - Bloke 7   - - 2020-03-29 23:43:00
Novo mesto 11   5 - 1015 2020-03-29 23:43:00
Osilnica 9   - - 2020-03-29 23:43:00
Otlica 7   3 5 2020-03-29 23:33:00
Otlica (965 m) 7   4 7 2016-03-31 08:24:00
Park Škocj. jame 9   - 1 1014 2020-03-29 23:32:00
Pasja ravan 5   3 6 2020-03-29 23:53:00
Pavličevo sedlo 0   - - 2020-03-29 23:43:00
Piran-ocean. boja 12   2 2 2020-03-29 23:39:00
Planina pod Golico 4   - - 2020-03-29 23:53:00
Podčetrtek 7   - 1 1016 2020-03-29 23:33:00
Podnanos 14   4 11 2020-03-29 23:53:00
Postojna 9   3 5 1014 2020-03-29 23:53:00
Predel 4   - - 2020-03-29 23:43:00
Ptuj 9   3 5 2020-03-29 23:53:00
Ptuj - Terme -2   2 3 2017-01-19 14:35:00
Radegunda 5   - - 2020-03-29 23:53:00
Radenci 9   - - 1018 2020-03-29 23:33:00
Rateče 6   1 - 2020-03-29 23:43:00
Rateče (864 m) 5   - 2 2020-03-29 23:33:00
Ratitovec 0   4 6 2020-03-29 23:43:00
Ravne na Koroškem 8   - 2 2020-03-29 23:35:00
Rogaška Slatina 10   2 4 2020-03-29 23:43:00
Rogla -1   5 7 2020-03-29 23:53:00
Rogla (1492 m) -11   4 7 2016-01-18 10:32:00
Rudno polje 1   - 1 2020-03-29 23:53:00
Rudno polje (1347 m) -2   1 3 2015-10-20 07:36:00
Sevno 8   - - 2020-03-29 23:53:00
Slavnik 7   5 6 2020-03-29 23:43:00
Slovenj Gradec 7   1 - 2020-03-29 23:43:00
Slovenske Konjice 9   - - 2020-03-29 23:43:00
Sviščaki 3   4 6 2020-03-29 23:43:00
Šebreljski vrh 6   - - 2020-03-29 23:53:00
Šmartno pri Slovenj Gradcu 7   1 1 2020-03-29 23:43:00
Tatre 8   - - 2020-03-29 23:43:00
Tolmin - Volče 10   1 1 2020-03-29 23:43:00
Topol 7   - - 2020-03-29 23:43:00
Trbovlje 8   - 1 2020-03-29 23:37:00
Trebnje 11   - - 2020-03-29 23:43:00
Trije Kralji na Pohorju 1   - - 2020-03-29 23:43:00
Trojane - Limovce 6   4 7 1016 2020-03-29 23:43:00
Uršlja gora -1   1 2 2020-03-29 23:43:00
Vedrijan 13   - - 2020-03-29 23:43:00
Velenje 8   - - 2020-03-29 23:43:00
Velike Lašče 9   5 8 2020-03-29 23:43:00
Vogel 2   1 1 2020-03-29 23:43:00
Vojsko 11   - - 2020-03-29 14:42:00
Vrbanski plato -2   2 3 2016-12-07 11:23:00
Vrhnika 11   3 5 2020-03-29 23:43:00
Vršič 1   - - 2020-03-29 23:43:00
Zadlog 7   - - 2020-03-29 23:53:00
Zelenica 0   - - 2020-03-29 23:43:00
Zgornja Kapla 5   3 7 2020-03-29 23:43:00
Zgornja Radovna 4   - - 2020-03-29 23:43:00
Zgornja Sorica 7   - - 2020-03-29 23:53:00
Source: Slovenian Environmental Agency, meteo.si